GW0309 Weather Reports


Display with metric or nautical units.
time (UTC)temp
F
wind
direction
speed
MPH
gust
MPH
rain 1hr
in
rain 24hr
in
rain mn
in
humidity
%
barometer
mb
20260508111108 0 159 1.0 3.0 0.00 0.00 0.00 1059.7
20260508110606 0 146 1.0 2.0 0.00 0.00 0.00 1059.6
20260508110101 0 157 2.0 2.0 0.00 0.00 0.00 1059.6
20260508105556 0 144 1.0 2.0 0.00 0.00 0.00 1059.7
20260508105054 0 185 3.0 3.0 0.00 0.00 0.00 1059.5
20260508104552 0 146 2.0 2.0 0.00 0.00 0.00 1059.6
20260508104048 0 173 2.0 2.0 0.00 0.00 0.00 1059.6
20260508103545 0 151 1.0 2.0 0.00 0.00 0.00 1059.5
20260508103042 0 134 1.0 2.0 0.00 0.00 0.00 1059.5
20260508102540 0 162 1.0 7.0 0.00 0.00 0.00 1059.6
20260508102038 0 139 2.0 2.0 0.00 0.00 0.00 1059.6
20260508101535 0 173 1.0 2.0 0.00 0.00 0.00 1059.5
20260508101032 0 167 1.0 3.0 0.00 0.00 0.00 1059.7
20260508100530 0 178 3.0 6.0 0.00 0.00 0.00 1059.7
20260508100026 0 181 3.0 3.0 0.00 0.00 0.00 1059.6
20260508095524 0 146 1.0 5.0 0.00 0.00 0.00 1059.5
20260508095020 0 154 1.0 5.0 0.00 0.00 0.00 1059.7
20260508094518 0 148 1.0 2.0 0.00 0.00 0.00 1059.9
20260508094014 0 137 1.0 2.0 0.00 0.00 0.00 1059.8
20260508093511 0 155 1.0 2.0 0.00 0.00 0.00 1059.9
20260508093009 0 170 2.0 3.0 0.00 0.00 0.00 1059.9
20260508092506 0 144 1.0 1.0 0.00 0.00 0.00 1060.1
20260508092006 0 161 2.0 2.0 0.00 0.00 0.00 1059.7
20260508091501 0 149 1.0 3.0 0.00 0.00 0.00 1059.9
20260508090959 0 146 0.0 1.0 0.00 0.00 0.00 1059.8
20260508090457 0 156 2.0 2.0 0.00 0.00 0.00 1059.7
20260508085953 0 146 1.0 1.0 0.00 0.00 0.00 1059.8
20260508085449 0 143 0.0 3.0 0.00 0.00 0.00 1059.9
20260508084946 0 168 1.0 2.0 0.00 0.00 0.00 1060.0
20260508084443 0 148 2.0 2.0 0.00 0.00 0.00 1059.7
20260508083941 0 168 1.0 6.0 0.00 0.00 0.00 1060.0
20260508083438 0 151 1.0 3.0 0.00 0.00 0.00 1060.0
20260508082933 0 157 2.0 6.0 0.00 0.00 0.00 1060.1
20260508082430 0 173 2.0 3.0 0.00 0.00 0.00 1060.1
20260508081928 0 152 2.0 3.0 0.00 0.00 0.00 1060.2
20260508081425 0 132 4.0 6.0 0.00 0.00 0.00 1060.0
20260508080921 0 194 3.0 3.0 0.00 0.00 0.00 1060.0
20260508080419 0 160 2.0 6.0 0.00 0.00 0.00 1060.1
20260508075915 0 134 2.0 3.0 0.00 0.00 0.00 1060.1
20260508075413 0 164 2.0 2.0 0.00 0.00 0.00 1060.0
20260508074910 0 155 1.0 2.0 0.00 0.00 0.00 1060.3
20260508074408 0 137 2.0 6.0 0.00 0.00 0.00 1060.1
20260508073904 0 154 3.0 5.0 0.00 0.00 0.00 1060.2
20260508073402 0 174 3.0 6.0 0.00 0.00 0.00 1060.2
20260508072859 0 176 3.0 6.0 0.00 0.00 0.00 1060.2
20260508072355 0 162 1.0 5.0 0.00 0.00 0.00 1060.4
20260508071852 0 159 3.0 3.0 0.00 0.00 0.00 1060.2
20260508071350 0 143 1.0 5.0 0.00 0.00 0.00 1060.4
20260508070848 0 157 2.0 3.0 0.00 0.00 0.00 1060.6
20260508070345 0 153 3.0 5.0 0.00 0.00 0.00 1060.7
20260508065842 0 141 1.0 2.0 0.00 0.00 0.00 1060.7
20260508065340 0 165 2.0 2.0 0.00 0.00 0.00 1060.9
20260508064838 0 160 1.0 2.0 0.00 0.00 0.00 1060.9
20260508064336 0 162 3.0 3.0 0.00 0.00 0.00 1060.9
20260508063833 0 156 3.0 3.0 0.00 0.00 0.00 1060.8
20260508063331 0 147 1.0 2.0 0.00 0.00 0.00 1061.1
20260508062828 0 162 2.0 3.0 0.00 0.00 0.00 1061.0
20260508062325 0 147 1.0 1.0 0.00 0.00 0.00 1060.9
20260508061822 0 138 0.0 1.0 0.00 0.00 0.00 1061.1
20260508061319 0 135 0.0 1.0 0.00 0.00 0.00 1061.2
20260508060816 0 136 0.0 1.0 0.00 0.00 0.00 1061.4
20260508060314 0 147 1.0 1.0 0.00 0.00 0.00 1061.3
20260508055809 0 137 0.0 2.0 0.00 0.00 0.00 1061.3
20260508055307 0 135 0.0 1.0 0.00 0.00 0.00 1061.0
20260508054803 0 133 0.0 1.0 0.00 0.00 0.00 1061.2
20260508054301 0 145 1.0 1.0 0.00 0.00 0.00 1061.3
20260508053757 0 131 0.0 1.0 0.00 0.00 0.00 1061.4
20260508053255 0 135 0.0 2.0 0.00 0.00 0.00 1061.2
20260508052752 0 145 1.0 1.0 0.00 0.00 0.00 1061.3
20260508052249 0 157 2.0 3.0 0.00 0.00 0.00 1061.2
20260508051745 0 147 1.0 3.0 0.00 0.00 0.00 1061.1
20260508051240 0 152 2.0 3.0 0.00 0.00 0.00 1061.2
20260508050737 0 145 1.0 3.0 0.00 0.00 0.00 1061.3
20260508050235 0 140 1.0 3.0 0.00 0.00 0.00 1061.2
20260508045730 0 159 3.0 5.0 0.00 0.00 0.00 1061.3
20260508045228 0 157 2.0 5.0 0.00 0.00 0.00 1061.4
20260508044725 0 145 1.0 3.0 0.00 0.00 0.00 1061.3
20260508044216 0 156 3.0 3.0 0.00 0.00 0.00 1061.5
20260508043712 0 154 1.0 2.0 0.00 0.00 0.00 1061.7
20260508043210 0 142 1.0 3.0 0.00 0.00 0.00 1061.7
20260508042706 0 138 0.0 2.0 0.00 0.00 0.00 1061.8
20260508042204 0 144 1.0 2.0 0.00 0.00 0.00 1061.8
20260508041659 0 154 1.0 2.0 0.00 0.00 0.00 1061.7
20260508041157 0 142 2.0 2.0 0.00 0.00 0.00 1062.0
20260508040653 0 138 0.0 1.0 0.00 0.00 0.00 1062.1
20260508040151 0 148 1.0 1.0 0.00 0.00 0.00 1062.1
20260508035648 0 136 0.0 1.0 0.00 0.00 0.00 1062.2
20260508035145 0 134 0.0 1.0 0.00 0.00 0.00 1062.0
20260508034642 0 144 1.0 1.0 0.00 0.00 0.00 1062.3
20260508034139 0 152 1.0 2.0 0.00 0.00 0.00 1062.0
20260508033636 0 133 0.0 0.0 0.00 0.00 0.00 1062.0
20260508033135 0 139 0.0 1.0 0.00 0.00 0.00 1062.1
20260508032630 0 131 0.0 0.0 0.00 0.00 0.00 1062.2
20260508032128 0 133 0.0 0.0 0.00 0.00 0.00 1062.0
20260508031625 0 143 0.0 1.0 0.00 0.00 0.00 1062.1
20260508031121 0 135 0.0 1.0 0.00 0.00 0.00 1061.9
20260508030618 0 132 0.0 0.0 0.00 0.00 0.00 1061.8
20260508030116 0 134 0.0 0.0 0.00 0.00 0.00 1061.8
20260508025612 0 139 0.0 0.0 0.00 0.00 0.00 1061.8
20260508025109 0 132 0.0 0.0 0.00 0.00 0.00 1061.9
20260508024605 0 130 0.0 0.0 0.00 0.00 0.00 1061.9
20260508024102 0 134 0.0 0.0 0.00 0.00 0.00 1061.6
20260508023558 0 134 0.0 0.0 0.00 0.00 0.00 1061.7
20260508023056 0 135 0.0 0.0 0.00 0.00 0.00 1061.5
20260508022551 0 130 0.0 0.0 0.00 0.00 0.00 1061.5
20260508022049 0 137 0.0 0.0 0.00 0.00 0.00 1061.3
20260508021544 0 145 1.0 1.0 0.00 0.00 0.00 1061.4
20260508021041 0 151 1.0 2.0 0.00 0.00 0.00 1061.4
20260508020538 0 138 0.0 1.0 0.00 0.00 0.00 1061.3
20260508020036 0 132 0.0 0.0 0.00 0.00 0.00 1061.3
20260508015533 0 132 0.0 0.0 0.00 0.00 0.00 1061.2
20260508015030 0 129 0.0 0.0 0.00 0.00 0.00 1061.2
20260508014526 0 130 0.0 0.0 0.00 0.00 0.00 1061.1
20260508014023 0 131 0.0 0.0 0.00 0.00 0.00 1061.2
20260508013519 0 131 0.0 0.0 0.00 0.00 0.00 1061.1
20260508013016 0 131 0.0 0.0 0.00 0.00 0.00 1061.0
20260508012514 0 131 0.0 0.0 0.00 0.00 0.00 1061.1
20260508012011 0 134 0.0 0.0 0.00 0.00 0.00 1061.0
20260508011509 0 130 0.0 0.0 0.00 0.00 0.00 1060.9
20260508011006 0 132 0.0 1.0 0.00 0.00 0.00 1060.8
20260508010502 0 137 0.0 1.0 0.00 0.00 0.00 1060.8
20260508005959 0 134 0.0 1.0 0.00 0.00 0.00 1060.8
20260508005456 0 129 0.0 1.0 0.00 0.00 0.00 1060.7
20260508004953 0 141 1.0 1.0 0.00 0.00 0.00 1060.7
20260508004449 0 155 1.0 2.0 0.00 0.00 0.00 1060.4
20260508003946 0 152 0.0 1.0 0.00 0.00 0.00 1060.7
20260508003443 0 131 0.0 1.0 0.00 0.00 0.00 1060.7
20260508002940 0 233 1.0 2.0 0.00 0.00 0.00 1060.7
20260508002436 0 127 0.0 2.0 0.00 0.00 0.00 1060.7
20260508001932 0 122 1.0 1.0 0.00 0.00 0.00 1060.3
20260508001429 0 147 0.0 1.0 0.00 0.00 0.00 1060.6
20260508000925 0 146 1.0 5.0 0.00 0.00 0.00 1060.6
20260508000421 0 133 0.0 2.0 0.00 0.00 0.00 1060.4
20260507235919 0 249 2.0 3.0 0.00 0.00 0.00 1060.4
20260507235416 0 118 2.0 5.0 0.00 0.00 0.00 1060.3
20260507234912 0 146 2.0 6.0 0.00 0.00 0.00 1060.6
20260507234403 0 260 3.0 5.0 0.00 0.00 0.00 1060.8
20260507233900 0 211 2.0 8.0 0.00 0.00 0.00 1060.6
20260507233357 0 138 1.0 2.0 0.00 0.00 0.00 1060.6
20260507232855 0 133 1.0 1.0 0.00 0.00 0.00 1060.8
20260507232351 0 254 2.0 5.0 0.00 0.00 0.00 1060.7
20260507231849 0 247 2.0 9.0 0.00 0.00 0.00 1060.8
20260507231345 0 226 3.0 7.0 0.00 0.00 0.00 1060.9
20260507230842 0 145 2.0 5.0 0.00 0.00 0.00 1061.0
20260507230339 0 148 1.0 5.0 0.00 0.00 0.00 1060.9
20260507225839 0 234 3.0 3.0 0.00 0.00 0.00 1061.1
20260507225335 0 224 2.0 3.0 0.00 0.00 0.00 1060.9
20260507224831 0 136 1.0 7.0 0.00 0.00 0.00 1061.2
20260507224328 0 162 2.0 3.0 0.00 0.00 0.00 1061.0
20260507223824 0 146 5.0 9.0 0.00 0.00 0.00 1061.2
20260507223321 0 221 1.0 5.0 0.00 0.00 0.00 1061.1
20260507222818 0 124 2.0 2.0 0.00 0.00 0.00 1061.1
20260507222314 0 127 1.0 3.0 0.00 0.00 0.00 1061.4
20260507221811 0 228 3.0 5.0 0.00 0.00 0.00 1061.4
20260507221308 0 203 2.0 11.0 0.00 0.00 0.00 1061.4
20260507220804 0 162 2.0 3.0 0.00 0.00 0.00 1061.5
20260507220303 0 159 2.0 2.0 0.00 0.00 0.00 1061.4
20260507215758 0 178 4.0 9.0 0.00 0.00 0.00 1061.3
20260507215256 0 265 4.0 5.0 0.00 0.00 0.00 1061.2
20260507214752 0 251 2.0 3.0 0.00 0.00 0.00 1061.6
20260507214250 0 173 1.0 6.0 0.00 0.00 0.00 1061.2
20260507213745 0 306 4.0 9.0 0.00 0.00 0.00 1061.4
20260507213242 0 249 7.0 9.0 0.00 0.00 0.00 1061.7
20260507212739 0 182 1.0 7.0 0.00 0.00 0.00 1061.4
20260507212235 0 329 4.0 6.0 0.00 0.00 0.00 1061.6
20260507211732 0 198 2.0 6.0 0.00 0.00 0.00 1061.6
20260507211228 0 188 2.0 5.0 0.00 0.00 0.00 1061.6
20260507210725 0 239 2.0 8.0 0.00 0.00 0.00 1061.7
20260507210222 0 301 4.0 7.0 0.00 0.00 0.00 1061.8
20260507205718 0 189 2.0 3.0 0.00 0.00 0.00 1061.7
20260507205215 0 158 1.0 5.0 0.00 0.00 0.00 1062.1
20260507204711 0 169 0.0 5.0 0.00 0.00 0.00 1061.8
20260507204210 0 133 1.0 2.0 0.00 0.00 0.00 1062.0
20260507203707 0 181 1.0 5.0 0.00 0.00 0.00 1062.2
20260507203204 0 149 1.0 3.0 0.00 0.00 0.00 1062.1
20260507202700 0 227 5.0 7.0 0.00 0.00 0.00 1062.2
20260507202156 0 211 4.0 9.0 0.00 0.00 0.00 1062.5
20260507201651 0 159 3.0 5.0 0.00 0.00 0.00 1062.4
20260507201149 0 150 1.0 3.0 0.00 0.00 0.00 1062.5
20260507200645 0 243 6.0 14.0 0.00 0.00 0.00 1062.4
20260507200141 0 278 4.0 7.0 0.00 0.00 0.00 1062.6
20260507195638 0 195 3.0 6.0 0.00 0.00 0.00 1062.5
20260507195135 0 188 4.0 9.0 0.00 0.00 0.00 1062.6
20260507194632 0 142 0.0 3.0 0.00 0.00 0.00 1062.7
20260507194127 0 297 2.0 3.0 0.00 0.00 0.00 1063.0
20260507193624 0 161 2.0 7.0 0.00 0.00 0.00 1062.8
20260507193121 0 268 5.0 10.0 0.00 0.00 0.00 1062.9
20260507192617 0 246 5.0 8.0 0.00 0.00 0.00 1062.8
20260507192114 0 203 7.0 9.0 0.00 0.00 0.00 1063.3
20260507191610 0 108 1.0 3.0 0.00 0.00 0.00 1063.1
20260507191107 0 206 2.0 7.0 0.00 0.00 0.00 1062.9
20260507190604 0 255 5.0 6.0 0.00 0.00 0.00 1063.0
20260507185601 0 269 3.0 5.0 0.00 0.00 0.00 1063.1
20260507185057 0 134 1.0 3.0 0.00 0.00 0.00 1062.9
20260507184556 0 170 1.0 5.0 0.00 0.00 0.00 1063.1
20260507184053 0 130 1.0 8.0 0.00 0.00 0.00 1063.0
20260507183548 0 223 3.0 10.0 0.00 0.00 0.00 1063.4
20260507183046 0 92 2.0 3.0 0.00 0.00 0.00 1063.5
20260507182542 0 227 3.0 6.0 0.00 0.00 0.00 1063.4
20260507182038 0 184 2.0 9.0 0.00 0.00 0.00 1063.5
20260507181536 0 147 1.0 5.0 0.00 0.00 0.00 1063.7
20260507181032 0 244 3.0 8.0 0.00 0.00 0.00 1063.9
20260507180528 0 230 3.0 6.0 0.00 0.00 0.00 1063.8
20260507180025 0 195 2.0 3.0 0.00 0.00 0.00 1063.8
20260507175521 0 208 1.0 3.0 0.00 0.00 0.00 1063.9
20260507175019 0 168 1.0 6.0 0.00 0.00 0.00 1064.1
20260507174516 0 253 3.0 5.0 0.00 0.00 0.00 1064.0
20260507174014 0 171 2.0 3.0 0.00 0.00 0.00 1064.3
20260507173510 0 178 2.0 3.0 0.00 0.00 0.00 1064.3
20260507173008 0 164 2.0 6.0 0.00 0.00 0.00 1064.4
20260507172503 0 253 7.0 8.0 0.00 0.00 0.00 1064.4
20260507172000 0 166 2.0 7.0 0.00 0.00 0.00 1064.4
20260507171456 0 134 1.0 2.0 0.00 0.00 0.00 1064.4
20260507170953 0 156 1.0 5.0 0.00 0.00 0.00 1064.5
20260507170450 0 266 2.0 5.0 0.00 0.00 0.00 1064.8
20260507165946 0 197 3.0 5.0 0.00 0.00 0.00 1064.7
20260507165442 0 233 4.0 8.0 0.00 0.00 0.00 1064.8
20260507164938 0 155 3.0 3.0 0.00 0.00 0.00 1064.8
20260507164435 0 132 1.0 2.0 0.00 0.00 0.00 1064.9
20260507163932 0 142 2.0 3.0 0.00 0.00 0.00 1064.9
20260507163429 0 288 6.0 7.0 0.00 0.00 0.00 1064.7
20260507162926 0 174 1.0 6.0 0.00 0.00 0.00 1064.9
20260507162421 0 297 3.0 6.0 0.00 0.00 0.00 1065.1
20260507161919 0 106 2.0 6.0 0.00 0.00 0.00 1064.8
20260507161414 0 192 1.0 3.0 0.00 0.00 0.00 1064.9
20260507160912 0 120 1.0 3.0 0.00 0.00 0.00 1064.9
20260507160407 0 246 3.0 5.0 0.00 0.00 0.00 1065.2
20260507155904 0 215 3.0 8.0 0.00 0.00 0.00 1065.2
20260507155359 0 280 4.0 6.0 0.00 0.00 0.00 1065.2
20260507154857 0 131 2.0 7.0 0.00 0.00 0.00 1065.0
20260507154354 0 148 2.0 3.0 0.00 0.00 0.00 1065.0
20260507153852 0 249 3.0 8.0 0.00 0.00 0.00 1065.1
20260507153348 0 113 1.0 3.0 0.00 0.00 0.00 1065.1
20260507152844 0 283 4.0 9.0 0.00 0.00 0.00 1065.2
20260507152340 0 143 4.0 8.0 0.00 0.00 0.00 1065.0
20260507151836 0 54 1.0 5.0 0.00 0.00 0.00 1065.4
20260507151332 0 167 1.0 3.0 0.00 0.00 0.00 1065.5
20260507150830 0 113 1.0 2.0 0.00 0.00 0.00 1065.2
20260507150327 0 130 1.0 5.0 0.00 0.00 0.00 1065.3
20260507145822 0 140 1.0 2.0 0.00 0.00 0.00 1065.5
20260507145320 0 240 4.0 6.0 0.00 0.00 0.00 1065.4
20260507144817 0 155 1.0 1.0 0.00 0.00 0.00 1065.6
20260507144314 0 124 1.0 2.0 0.00 0.00 0.00 1065.5
20260507143810 0 162 2.0 2.0 0.00 0.00 0.00 1065.6
20260507143308 0 140 2.0 2.0 0.00 0.00 0.00 1065.4
20260507142803 0 131 1.0 2.0 0.00 0.00 0.00 1065.3
20260507142300 0 95 1.0 1.0 0.00 0.00 0.00 1065.5
20260507141757 0 152 2.0 2.0 0.00 0.00 0.00 1065.7
20260507141254 0 157 1.0 2.0 0.00 0.00 0.00 1065.6
20260507140750 0 124 1.0 1.0 0.00 0.00 0.00 1065.7
20260507140247 0 97 1.0 1.0 0.00 0.00 0.00 1065.6
20260507135744 0 143 1.0 2.0 0.00 0.00 0.00 1065.6
20260507135242 0 124 1.0 5.0 0.00 0.00 0.00 1065.5
20260507134738 0 126 2.0 3.0 0.00 0.00 0.00 1065.6
20260507134235 0 130 1.0 1.0 0.00 0.00 0.00 1065.6
20260507133730 0 123 0.0 1.0 0.00 0.00 0.00 1065.7
20260507133227 0 115 1.0 3.0 0.00 0.00 0.00 1065.8
20260507132725 0 120 0.0 1.0 0.00 0.00 0.00 1065.5
20260507132221 0 124 1.0 1.0 0.00 0.00 0.00 1065.6
20260507131718 0 134 0.0 1.0 0.00 0.00 0.00 1065.6
20260507131216 0 146 1.0 1.0 0.00 0.00 0.00 1066.0
20260507130712 0 123 0.0 2.0 0.00 0.00 0.00 1066.0
20260507130210 0 118 0.0 1.0 0.00 0.00 0.00 1065.6
20260507125708 0 124 0.0 1.0 0.00 0.00 0.00 1065.8
20260507125206 0 126 0.0 0.0 0.00 0.00 0.00 1065.6
20260507124702 0 126 0.0 0.0 0.00 0.00 0.00 1065.8
20260507124159 0 131 0.0 1.0 0.00 0.00 0.00 1065.6
20260507123657 0 129 0.0 0.0 0.00 0.00 0.00 1065.7
20260507123154 0 129 0.0 0.0 0.00 0.00 0.00 1065.5
20260507122654 0 129 0.0 0.0 0.00 0.00 0.00 1065.4
20260507122151 0 128 0.0 0.0 0.00 0.00 0.00 1065.5
20260507121647 0 129 0.0 0.0 0.00 0.00 0.00 1065.3
20260507121143 0 135 0.0 1.0 0.00 0.00 0.00 1065.4
20260507120639 0 137 1.0 1.0 0.00 0.00 0.00 1065.2
20260507120136 0 137 1.0 1.0 0.00 0.00 0.00 1065.2
20260507115632 0 135 0.0 1.0 0.00 0.00 0.00 1065.5
20260507115128 0 128 0.0 0.0 0.00 0.00 0.00 1065.1
20260507114624 0 133 0.0 1.0 0.00 0.00 0.00 1065.2
20260507114121 0 128 0.0 0.0 0.00 0.00 0.00 1065.2
20260507113619 0 132 0.0 0.0 0.00 0.00 0.00 1065.1
20260507113116 0 137 1.0 1.0 0.00 0.00 0.00 1065.0
20260507112614 0 132 0.0 0.0 0.00 0.00 0.00 1065.2
20260507112110 0 132 0.0 0.0 0.00 0.00 0.00 1064.9
20260507111607 0 132 0.0 0.0 0.00 0.00 0.00 1065.0